Terug naar catalogus

KUIPER-00072

ActiefCommunicatieLEO
NORAD 64819·PAYLOAD·🇺🇸 United States

Gelanceerd Jul 16, 2025 vanaf Cape Canaveral Space Force Station

Loading…

Volgende Passages (komende 24 uur)

TLE

VersSource: CelesTrak SupGP

Epoch: Sep 14, 2026, 20:01 UTC

1 64819C 25151D   26257.83408565 -.00024647  00000+0 -32266-2 0  2575
2 64819  51.8962 166.6274 0001071  81.2644 127.5030 14.79951343    12

Volg KUIPER-00072 in realtime met AllMySat

Download on the App Store